Theta_e
305 303 300 302 307 307 307 307 307 306 306 305 306 305 305 305 305 305 305 305 305 305 306 306 307 307 308 309 310 310 311 312 314 314 314 312 312 311 311 311 311 310 310
306 304 302 300 304 307 307 307 304 305 305 305 305 305 304 304 304 304 305 304 304 304 305 305 306 306 306 307 306 307 308 309 310 309 311 312 311 310 309 309 308 307 306
307 306 304 301 301 304 306 307 306 304 305 305 304 303 303 303 303 304 304 303 303 304 305 305 305 306 305 305 305 305 306 306 307 307 307 309 308 308 307 306 305 304 303
306 306 305 303 301 300 304 306 306 305 304 304 303 303 303 303 303 303 303 302 303 303 304 305 305 305 305 305 305 304 304 305 305 306 306 306 307 307 305 304 303 302 301
305 306 306 305 302 300 301 303 305 304 303 304 303 303 302 302 301 300 300 302 302 303 304 304 304 304 304 304 304 304 304 304 304 305 306 306 306 304 301 300 299 298 298
304 305 305 304 302 301 299 300 302 303 302 302 302 302 302 302 302 301 301 300 300 301 302 302 302 303 303 303 303 303 303 302 302 301 302 301 301 300 299 297 297 297 297
303 304 304 304 303 302 299 298 298 299 300 300 300 300 300 300 300 301 301 300 300 298 299 302 301 301 301 301 301 301 301 301 300 299 299 298 298 297 296 295 294 292 292
302 302 303 303 302 301 300 298 297 297 298 298 298 298 298 298 299 299 300 299 299 298 296 299 301 300 300 299 298 299 299 298 298 298 297 297 296 295 293 290 288 288 288
301 302 302 302 302 301 300 299 298 297 297 297 297 297 297 297 297 298 298 298 298 297 296 295 298 299 298 297 295 295 297 297 297 296 295 294 293 292 289 287 286 286 286
301 300 301 301 301 301 300 300 299 298 298 297 297 297 296 296 297 297 297 297 297 296 296 295 294 298 298 297 295 292 294 295 296 294 293 291 291 289 288 286 285 285 285
299 300 300 301 300 300 300 299 299 299 298 297 297 297 297 296 297 296 296 296 296 296 296 296 295 294 297 297 296 293 291 293 294 294 293 291 290 288 288 286 284 284 284
299 299 298 298 298 298 298 299 299 298 297 297 296 296 297 297 297 297 296 295 295 295 296 296 295 294 293 296 296 294 291 292 292 292 291 290 289 288 287 286 284 284 284
296 296 297 297 297 297 296 298 298 298 297 297 296 296 297 298 297 297 296 295 295 295 295 296 295 294 293 294 295 293 290 290 289 289 288 288 288 287 287 284 283 283 283
295 296 297 297 297 297 296 296 297 297 296 296 295 295 297 297 297 298 297 297 296 295 295 295 296 295 293 292 293 292 290 288 288 287 287 287 286 286 286 284 283 282 283
296 297 297 297 297 297 297 296 296 297 297 297 297 297 296 296 297 297 297 297 296 296 295 294 295 295 293 292 292 292 290 289 288 287 286 286 286 286 285 283 283 282 283
296 297 297 297 297 297 297 297 298 297 297 297 297 296 297 296 297 297 297 297 297 296 295 293 293 293 292 292 291 291 291 290 288 287 286 286 285 285 284 283 283 282 282
296 296 296 295 295 295 295 295 294 296 296 296 296 296 296 296 296 295 296 296 296 296 296 293 292 292 291 291 290 290 289 290 290 288 287 286 285 284 283 283 282 282 282
294 294 294 294 294 294 294 294 294 293 293 294 295 294 294 294 293 293 293 294 295 296 296 294 292 292 292 291 290 290 289 289 289 288 287 286 286 285 283 282 282 282 281
293 294 294 294 294 294 294 294 293 293 293 293 294 295 294 293 293 292 292 292 292 293 293 293 293 293 292 292 291 291 290 289 289 288 287 286 286 285 283 282 282 281 281
295 295 295 295 295 295 294 294 293 293 292 292 292 293 293 292 292 292 291 291 290 290 290 291 292 292 292 292 291 291 290 289 288 288 287 286 285 285 283 282 281 281 282
294 295 297 296 296 296 295 294 293 293 292 292 292 293 293 291 291 291 291 290 290 290 290 290 290 291 291 292 291 291 290 289 289 288 287 286 285 283 283 283 282 281 281
294 295 295 294 295 295 296 296 294 293 292 291 292 293 293 292 292 291 290 289 289 289 290 290 290 290 290 290 291 290 290 289 289 288 287 286 284 283 283 282 281 280 280
293 294 294 293 293 293 293 293 292 292 291 291 291 291 292 292 292 291 290 289 288 288 288 289 289 289 290 290 290 290 290 290 290 289 288 286 284 283 283 281 280 280 279
292 292 292 292 292 292 291 291 291 291 290 290 291 291 291 291 290 290 289 289 289 288 288 289 289 289 289 289 289 289 290 290 289 289 289 287 284 282 282 281 280 280 279
291 291 291 291 291 291 291 291 290 290 290 291 291 291 291 290 290 290 289 288 288 287 287 288 288 288 288 288 288 288 288 289 289 288 288 286 284 283 282 281 280 279 279
291 291 291 291 290 290 290 290 290 290 291 291 291 291 290 290 289 289 288 287 287 287 287 287 287 287 287 287 288 288 287 288 287 287 287 285 283 282 281 281 280 279 279
Wind_Speed
17 15 14 14 14 14 13 13 13 13 12 12 11 10 8 8 8 8 9 10 12 14 12 12 12 11 11 11 10 8 6 2 2 2 2 5 3 8 8 6 6 7 8
18 17 16 15 15 15 13 12 11 12 12 11 11 9 9 8 7 7 9 10 11 12 11 11 12 12 10 10 11 11 10 7 4 3 4 3 5 7 4 3 4 5 6
19 19 18 17 16 17 15 14 13 14 13 12 11 10 10 10 8 7 8 9 11 9 9 10 11 10 10 11 12 11 10 8 7 5 5 4 6 4 2 1 3 5 5
20 20 20 19 18 17 16 15 16 15 15 14 13 12 12 12 10 9 8 7 9 9 10 10 9 9 10 12 12 11 10 11 10 10 11 10 9 6 5 4 3 6 4
16 18 21 20 18 17 17 17 17 17 17 16 16 16 14 13 10 10 10 8 7 8 9 10 11 11 12 11 10 9 9 9 10 11 10 8 4 4 3 4 3 8 5
17 18 19 19 18 18 18 18 18 19 18 18 19 18 17 16 13 13 13 12 11 11 12 11 11 11 11 11 10 9 7 6 7 5 4 3 3 4 3 3 5 3 2
18 18 18 18 19 19 18 19 21 21 19 20 21 19 20 18 15 15 15 16 15 14 14 14 14 12 11 10 12 12 10 10 11 9 6 6 4 5 5 6 5 5 5
21 20 19 17 18 19 19 20 22 21 21 22 22 21 20 20 17 16 16 17 18 17 16 16 16 15 14 14 13 12 12 13 11 9 8 7 6 5 5 6 6 6 9
24 21 20 18 18 18 20 22 22 21 22 23 23 22 21 22 19 18 17 18 20 21 18 17 18 18 15 12 13 15 14 15 12 9 8 7 7 7 5 5 5 4 3
22 23 19 18 18 19 21 22 22 21 23 22 23 23 22 23 21 19 18 19 22 23 21 19 18 19 18 15 14 14 16 17 13 12 10 8 9 9 7 6 5 6 4
21 18 18 17 17 18 20 21 22 22 22 23 24 24 23 23 23 22 20 21 24 24 23 22 19 17 18 18 16 15 17 13 14 15 14 14 14 12 11 9 8 7 7
18 15 15 16 18 19 21 22 21 20 21 22 23 24 24 24 23 22 21 21 22 24 26 25 20 17 18 18 18 17 15 12 14 16 16 16 16 15 12 10 9 8 9
18 19 19 20 20 19 20 20 20 18 19 21 21 22 24 23 21 19 18 19 20 23 26 25 20 18 17 18 19 18 15 15 16 17 19 19 17 13 11 10 9 10 10
19 20 22 21 21 19 17 16 16 17 18 21 21 22 24 22 20 18 17 16 17 20 22 24 21 19 18 18 19 18 17 18 19 20 20 17 14 14 13 11 9 9 9
19 20 19 17 16 17 16 16 16 17 16 19 20 20 20 23 21 17 16 16 15 15 17 20 20 21 21 20 22 23 22 21 21 22 19 18 16 15 15 13 11 10 10
20 19 17 16 16 15 16 18 14 14 13 14 15 17 19 21 20 19 19 19 18 16 18 21 23 25 26 26 26 28 27 26 27 26 23 22 21 19 17 15 15 13 12
16 17 16 16 15 14 13 13 16 16 12 9 9 11 13 16 17 17 18 18 18 17 21 23 21 23 26 27 28 28 27 30 28 28 28 28 25 22 18 20 18 16 14
17 17 16 16 15 14 13 13 13 13 17 20 14 15 14 14 15 16 16 17 17 17 22 22 22 24 26 27 28 27 28 27 26 27 28 29 28 26 23 22 21 21 17
17 15 14 13 13 13 13 14 14 15 16 18 20 18 15 16 17 16 13 14 16 17 20 23 25 25 25 27 28 27 28 27 27 26 28 29 30 28 25 24 22 18 17
15 14 14 14 15 15 15 17 18 19 20 22 22 21 18 17 18 20 20 19 18 20 21 21 22 25 26 26 26 26 25 25 24 26 27 27 29 30 28 25 24 20 18
28 23 18 17 18 19 20 22 24 23 25 25 27 25 21 16 20 20 22 23 23 23 23 22 21 22 25 26 26 26 25 25 25 25 26 27 28 28 28 25 23 22 20
25 28 31 30 30 27 27 27 26 25 25 25 27 27 24 21 22 23 23 24 23 21 21 23 24 23 23 25 25 26 25 25 25 26 27 27 27 27 27 25 23 21 20
29 27 26 26 27 28 26 27 26 25 26 26 26 26 24 24 25 24 22 22 21 21 22 22 23 23 24 25 25 27 28 27 28 28 27 27 27 27 28 25 24 20 20
29 29 28 28 25 23 24 25 25 25 24 24 24 23 23 24 23 23 21 22 24 24 24 24 23 23 23 24 24 25 26 26 26 26 26 26 26 25 27 25 25 23 21
27 27 26 25 25 24 23 22 23 24 23 22 22 22 23 23 23 22 22 23 24 25 25 25 24 23 23 22 22 22 22 20 20 22 22 23 24 26 27 26 25 23 21
28 25 25 25 24 24 23 20 19 19 20 21 22 22 23 21 21 21 22 23 23 23 24 24 25 25 22 21 19 18 17 16 16 17 18 21 22 24 25 24 24 22 21
Wind_Direction
268 269 268 269 269 269 273 281 284 286 283 283 288 292 303 302 314 321 321 321 323 326 321 325 328 332 332 335 344 1 20 2 280 310 358 15 19 26 29 19 13 13 1
272 268 268 269 267 266 272 272 282 280 280 281 283 292 295 294 298 314 314 314 316 311 314 325 329 332 333 333 334 335 335 341 336 291 301 307 324 339 7 14 24 18 11
274 267 266 266 264 266 269 268 272 274 277 279 281 286 287 288 296 302 308 323 314 308 309 312 314 312 312 319 329 326 323 319 320 294 294 298 317 320 337 347 347 1 6
282 268 264 266 266 268 269 267 268 269 272 277 279 285 283 288 294 294 296 314 319 308 305 304 302 301 303 306 306 308 304 303 299 292 292 292 293 274 294 297 304 338 336
298 273 267 272 270 268 266 267 267 267 269 273 277 278 277 282 287 290 300 291 297 299 296 294 294 296 299 302 305 301 298 297 295 293 290 283 284 297 317 323 322 330 315
310 290 279 272 269 267 266 266 266 267 269 271 270 274 275 275 279 278 281 289 290 288 288 285 288 286 289 295 297 293 291 298 302 300 298 306 300 287 293 321 338 344 309
307 299 290 280 273 268 267 266 266 268 272 270 270 272 274 277 278 274 272 274 280 285 282 278 277 276 282 286 290 287 288 290 289 292 274 264 273 265 291 300 302 291 276
297 296 292 286 279 275 269 267 269 269 270 271 273 274 275 277 277 274 270 270 271 275 279 273 270 271 277 276 271 266 271 272 275 278 283 272 263 272 287 286 289 285 282
292 296 294 287 280 276 271 271 274 275 273 272 274 275 273 278 277 276 272 268 269 272 276 274 268 265 277 270 264 263 264 262 264 265 268 266 268 275 282 271 258 263 247
303 305 296 291 279 274 275 276 278 276 275 275 273 271 273 275 277 275 271 268 267 270 274 272 268 261 262 267 261 263 257 261 250 246 244 239 246 259 271 277 256 240 238
312 307 301 298 292 285 283 281 282 281 277 272 270 272 272 273 276 276 272 265 263 269 270 270 267 262 255 256 255 260 258 267 252 241 242 247 246 248 254 264 262 253 241
310 303 303 303 301 296 290 285 282 281 277 274 273 277 278 281 281 280 276 269 266 261 263 269 269 264 258 251 251 257 258 245 242 234 240 242 244 248 257 262 257 251 250
309 308 310 310 306 303 296 289 281 280 275 273 271 276 283 288 289 286 280 275 270 261 265 267 268 265 262 253 249 250 249 233 236 236 239 247 253 262 254 253 254 254 248
306 307 310 310 310 307 300 290 280 279 278 276 274 276 283 286 285 284 283 281 274 266 264 265 263 261 261 259 247 238 239 242 243 248 253 258 254 240 241 245 250 248 250
310 309 311 311 310 309 307 302 293 287 281 278 278 279 280 284 287 292 288 281 275 272 273 259 248 244 246 242 240 241 240 240 241 246 248 250 244 237 237 238 242 238 231
309 312 316 316 315 312 310 309 304 300 295 286 285 280 285 284 293 293 288 283 279 274 264 247 245 241 239 240 240 244 247 244 245 245 244 243 239 233 232 231 233 232 233
307 309 310 311 311 310 310 309 313 321 320 311 302 293 291 294 295 292 289 284 280 272 250 250 246 243 244 243 244 245 244 253 250 246 245 243 239 236 225 224 226 228 231
307 306 305 308 311 312 311 309 308 308 314 319 325 318 318 313 307 303 301 292 280 263 256 248 246 247 250 251 254 253 256 256 250 247 242 240 238 231 221 224 225 224 225
308 307 308 307 307 306 302 300 299 299 298 301 310 314 321 321 319 318 317 304 293 282 276 272 267 258 255 257 261 260 256 247 246 243 239 234 234 226 220 226 228 221 219
309 306 303 301 301 299 296 293 295 296 297 297 298 301 309 312 312 314 312 308 296 291 289 277 270 270 267 261 260 258 250 245 234 232 233 231 228 227 217 218 218 209 207
307 298 290 285 284 290 293 293 295 295 291 290 292 298 300 285 291 294 296 298 296 294 294 291 284 272 262 260 261 257 251 246 241 235 232 229 225 214 216 218 221 218 217
313 306 301 297 296 292 288 288 284 284 284 282 286 292 294 284 287 290 291 295 293 287 287 289 288 282 275 268 263 258 249 244 241 239 235 230 222 214 210 209 208 208 206
315 309 305 304 300 296 288 288 284 283 283 283 285 286 287 287 290 291 292 301 291 287 295 292 289 285 282 278 274 267 255 249 250 246 233 226 217 209 204 194 193 188 191
313 309 304 298 295 291 287 284 285 288 286 284 286 283 284 288 287 288 289 298 298 296 293 294 291 288 286 283 279 274 270 268 263 256 247 234 218 203 195 190 189 187 187
305 300 298 294 290 285 282 279 281 283 283 283 283 284 287 289 290 288 293 300 300 299 292 293 294 293 291 285 279 274 272 269 261 255 242 232 223 203 193 188 183 183 186
298 292 291 292 286 281 277 274 272 275 275 281 283 284 287 287 292 293 296 298 296 293 296 294 292 291 287 282 279 274 266 258 247 242 233 219 207 191 188 184 183 179 183